Find Starlink 4101

NORAD ID: 53142 Int'l Des: 2022-083 Owner: SPXS Country: US Constellation: starlink operational
LEOCIRCULAR

現在のビュー

3D地球を読み込み中...

About Starlink 4101

Starlink 4101 (NORAD 53142) is a starlink constellation satellite (v1.5) launched Jul 17, 2022 by SPXS of US. It operates in LEO, CIRCULAR orbit with a mass of 297.00 kg.

次回通過

Passes for default location (London). Set your location on the main map for personalized predictions.

高度履歴

Loading altitude history...

軌道要素

1 53142U 22083L 26263.84714424 -.00000045 00000-0 98227-5 0 9996
2 53142 53.1639 2.4391 0001442 55.2488 304.8651 15.34391086230907
Epoch: Sep 20, 2026 • Age: 9 hours

現在のステータス

高度 462.2 km
遠地点 / 近地点 N/A
速度 7.64 km/s
衛星直下点 8.65°N, 79.38°W
打ち上げ日 Jul 17, 2022
運用期間 4.1 years
タイプ internet

技術仕様

分類 Payload
質量 297.00 kg
乾燥質量 275.00 kg
長さ 0.20 m
スパン 9.00 m
形状 ? Box + pan
製造者 SPXS
バスタイプ Starlink
フェーズステータス In Orbit
所有者/国 SPXS/US

Most Searched